Theta_e
309 310 309 310 310 309 310 308 308 307 308 309 310 311 311 311 312 314 313 312 318 319 321 317 319 319 324 324 323 323 328 327 327 328 329 325 326 323 322 319 329 339 339 339 339
309 309 309 309 309 309 307 307 308 307 307 309 309 310 311 310 311 311 312 312 316 320 319 318 315 321 325 324 325 327 328 326 322 325 327 326 325 324 323 323 330 340 339 339 339
308 308 308 308 308 308 307 305 306 305 306 308 308 308 309 309 308 308 310 313 313 318 319 317 315 322 325 324 325 326 327 323 323 325 326 326 326 324 323 322 322 324 341 337 337
307 307 307 307 306 307 307 307 307 305 306 305 306 307 308 307 311 309 312 313 313 315 319 315 317 322 323 327 325 327 323 323 326 326 326 326 326 326 323 319 320 319 332 336 337
307 307 306 306 305 306 306 306 307 306 307 305 304 307 307 307 307 307 309 311 314 315 318 313 318 321 321 322 323 324 324 323 327 327 326 326 326 327 324 322 319 317 335 335 336
307 307 306 306 305 305 306 306 306 304 306 305 306 306 306 308 306 306 308 312 313 315 318 313 317 319 321 320 323 322 324 325 325 325 325 326 324 325 323 319 318 334 334 332 334
308 306 307 306 306 305 305 306 306 306 307 307 304 304 306 307 306 305 310 313 313 316 318 317 317 318 318 320 319 321 325 325 326 325 327 325 327 326 322 322 318 315 330 332 331
307 308 306 306 306 306 306 305 304 304 306 305 306 304 305 303 305 304 309 314 315 316 317 318 315 316 318 317 319 319 322 326 323 325 324 322 325 324 322 319 319 314 313 316 318
305 307 308 306 306 304 306 306 303 304 306 304 304 304 303 305 305 304 305 313 315 316 317 317 316 316 316 318 319 320 321 321 321 321 323 321 322 321 321 320 316 314 313 313 313
304 305 306 306 306 306 305 304 305 303 304 305 305 303 303 304 304 305 306 310 314 315 318 317 316 316 314 318 322 321 318 320 321 320 323 323 319 321 321 320 315 314 312 312 313
305 304 304 305 306 305 304 304 302 301 303 303 304 303 303 303 307 310 307 308 311 316 316 318 317 320 317 317 316 317 318 319 318 319 321 323 320 320 320 318 311 311 311 312 310
304 303 304 305 306 305 303 301 303 302 303 304 304 304 305 307 309 309 305 310 313 315 311 315 318 315 316 318 316 317 317 319 318 318 320 319 320 319 317 317 314 311 309 309 310
304 303 303 304 306 304 303 303 304 304 307 307 306 307 308 307 309 310 307 307 312 314 313 315 317 314 317 319 319 315 316 315 318 316 315 317 318 318 317 314 313 311 309 308 308
304 303 303 304 305 303 304 304 304 304 305 309 309 308 308 307 310 310 308 309 315 315 313 312 316 316 317 319 317 318 313 314 316 317 320 316 322 312 316 315 313 314 309 308 306
303 303 303 304 303 304 304 303 304 304 312 310 310 306 307 310 309 310 310 311 315 315 315 315 317 317 318 317 314 317 312 313 315 315 315 314 316 314 309 310 313 311 308 306 304
303 303 304 304 305 305 303 303 305 300 306 309 308 309 309 310 310 311 311 312 313 315 315 316 312 315 315 314 313 312 312 311 311 311 315 315 315 313 311 309 309 308 305 304 302
303 304 304 305 304 304 304 304 303 305 308 312 311 308 309 311 311 312 311 315 315 316 317 316 316 314 312 315 313 314 312 320 317 312 314 310 313 315 310 308 307 306 304 301 304
303 305 305 304 305 304 305 304 303 310 315 315 310 309 312 311 310 310 311 315 314 313 317 319 319 315 311 314 315 312 311 312 318 315 314 309 314 313 308 307 306 305 304 303 305
304 305 305 304 305 305 304 297 303 302 308 315 312 313 316 315 311 312 311 314 315 313 317 314 318 313 312 313 313 316 311 308 307 304 305 309 307 306 305 306 306 306 305 305 306
304 305 306 306 305 305 301 305 304 308 310 313 314 312 318 315 314 316 315 314 316 313 311 311 316 315 314 314 313 313 310 313 305 306 312 309 308 309 308 307 307 307 307 305 307
305 305 305 305 305 306 300 302 309 310 311 312 312 311 311 317 317 315 316 315 315 313 311 310 311 315 316 318 316 314 314 311 311 307 309 313 309 303 305 304 307 307 307 307 308
301 305 305 305 311 306 301 310 311 312 311 311 310 311 311 311 312 312 315 313 313 311 313 311 312 314 318 316 315 314 313 312 311 311 306 305 309 305 303 302 306 308 308 309 309
302 302 305 306 305 305 307 312 312 312 311 310 310 310 310 310 312 311 311 310 313 313 312 311 310 317 316 317 314 317 315 313 310 308 307 310 312 305 304 304 306 307 306 306 308
300 303 302 307 306 310 310 312 313 311 311 310 310 309 310 309 309 311 311 310 310 311 311 310 310 309 311 311 315 317 317 314 312 311 315 312 312 308 307 305 305 305 306 308 307
297 303 303 303 309 308 310 312 314 313 310 309 311 310 310 310 311 311 310 310 309 310 309 309 312 306 309 311 311 311 315 316 315 316 314 316 310 310 307 305 303 304 307 308 307
296 299 300 303 304 308 310 312 313 313 311 312 314 311 310 311 310 311 309 309 310 308 309 306 306 303 303 309 310 311 310 314 315 315 315 313 313 309 307 305 306 307 309 309 307
294 295 298 300 301 310 305 310 309 309 311 311 313 311 310 309 308 309 306 305 307 307 308 307 303 301 303 306 307 308 307 308 312 314 314 315 315 308 307 305 308 307 308 308 306
Wind_Speed
26 25 23 22 22 19 17 15 11 10 8 8 8 10 8 11 14 14 11 10 17 7 10 17 12 8 2 5 3 2 4 13 11 7 4 4 8 9 11 4 6 4 3 7 23
25 24 22 20 19 15 9 8 8 6 4 5 6 8 7 8 10 10 11 12 16 12 8 19 7 6 3 5 5 4 7 14 10 1 1 3 7 8 8 16 4 2 8 17 24
23 23 23 20 19 15 11 7 6 5 4 5 6 7 9 10 2 6 21 19 18 16 11 18 16 6 5 2 4 5 15 4 6 4 3 6 6 6 6 8 4 12 10 6 17
20 21 19 18 18 15 11 9 7 4 4 4 3 4 10 11 7 6 6 9 21 20 17 11 7 7 8 8 5 9 6 12 5 6 2 5 9 10 3 8 14 14 9 7 10
19 19 18 17 16 16 12 10 8 5 6 4 1 6 9 2 4 8 13 12 14 25 19 7 7 10 14 5 5 4 14 12 12 10 5 5 5 7 16 20 18 11 7 7 8
18 17 17 16 15 14 12 8 7 5 6 5 5 6 3 3 6 10 18 11 18 25 25 11 8 9 5 7 8 8 9 11 8 6 6 4 3 5 14 7 16 5 6 6 6
17 16 15 15 14 13 11 8 5 4 4 4 2 3 0 5 10 12 12 5 24 26 14 14 11 5 4 6 5 5 7 6 9 9 5 6 4 7 23 16 15 8 8 6 7
18 16 15 14 13 11 11 10 6 3 3 1 1 2 3 2 5 8 11 9 15 17 17 16 17 3 2 3 4 6 4 5 9 14 6 11 7 15 18 10 17 9 8 6 6
17 16 15 14 12 10 9 9 5 4 3 1 1 1 5 4 1 5 6 5 8 10 6 13 11 3 2 7 5 2 7 6 9 19 9 11 5 9 13 10 10 8 8 7 5
18 17 15 13 12 10 9 2 3 2 1 2 4 1 4 4 4 0 3 9 1 8 9 10 4 4 2 6 15 15 6 9 8 13 12 13 2 5 4 12 13 11 8 8 7
19 17 15 13 11 9 7 1 3 2 1 2 1 2 4 11 4 6 4 3 4 8 3 7 5 12 6 3 1 6 4 8 3 8 10 16 6 10 11 14 10 9 9 9 8
21 18 15 14 10 8 1 2 3 2 2 1 4 2 3 4 2 3 3 4 3 4 6 2 10 6 7 3 5 8 5 4 2 3 10 7 10 11 9 14 11 9 8 9 5
21 18 16 13 10 4 1 4 1 1 1 2 1 1 2 4 2 2 3 4 3 6 12 3 6 8 6 3 5 3 7 4 4 4 3 5 4 10 10 7 8 7 7 5 9
22 19 17 9 4 2 2 6 3 1 2 1 3 1 2 3 3 2 4 1 5 8 6 1 3 9 7 5 4 3 2 4 5 5 4 5 4 7 9 13 9 13 9 9 8
22 20 14 5 1 2 2 6 1 2 1 3 3 1 0 3 4 3 8 2 2 11 4 1 1 8 5 5 5 2 4 4 2 3 3 2 1 5 3 7 16 13 9 9 9
24 18 8 6 7 3 6 5 2 4 2 2 2 2 5 2 2 3 2 1 3 7 4 1 2 3 3 3 5 6 6 7 4 3 3 4 5 5 5 6 5 7 8 9 9
26 15 5 8 2 11 8 3 2 4 0 4 3 5 5 4 4 4 6 4 3 6 2 3 3 2 2 7 2 3 5 2 2 1 4 3 4 14 5 5 6 8 9 9 9
18 2 9 6 9 8 5 2 6 2 1 3 3 7 4 6 3 4 7 2 1 4 5 4 5 3 1 2 5 5 6 5 5 4 3 1 7 6 5 6 7 8 6 6 8
5 7 8 8 10 6 2 3 6 5 2 2 11 4 3 6 5 6 9 8 4 4 2 4 3 1 2 1 3 4 3 3 6 3 3 4 7 8 7 7 4 7 8 9 8
3 5 3 7 7 2 3 3 1 3 2 1 2 4 3 6 7 4 6 5 4 3 3 4 5 3 1 1 4 3 5 3 3 4 4 4 5 6 5 8 5 7 10 7 7
1 3 3 8 8 2 2 4 4 4 2 1 3 3 6 4 3 5 6 1 4 5 4 3 3 2 2 3 5 2 1 3 4 4 4 1 5 6 6 8 8 8 8 8 8
1 3 5 10 2 1 1 3 2 2 1 2 1 3 2 3 5 4 7 4 7 7 7 3 4 2 3 1 2 1 4 5 4 4 2 2 6 2 6 7 7 7 7 7 7
2 1 3 2 2 2 4 3 2 4 3 3 3 3 2 2 4 2 3 2 9 6 7 6 2 4 4 1 2 5 5 3 3 3 6 4 5 2 4 1 4 7 7 7 6
2 1 2 2 2 1 3 3 2 3 3 3 2 3 2 3 5 3 3 3 2 0 4 3 3 5 6 4 4 8 12 10 6 4 6 12 7 5 4 2 5 7 8 7 7
3 1 1 1 1 2 1 5 3 2 5 5 3 4 1 2 2 3 3 3 3 5 4 3 5 4 4 3 4 5 9 19 17 19 10 10 12 9 6 7 9 7 5 6 8
2 2 2 2 2 1 5 5 6 4 6 4 3 5 3 3 2 5 4 3 3 2 3 1 2 2 3 2 4 4 8 15 20 19 18 10 15 6 5 5 7 9 10 9 8
4 2 0 4 4 1 2 2 4 4 3 4 6 2 4 2 3 2 2 2 5 7 3 3 4 2 3 4 4 6 12 14 10 11 17 12 27 4 5 7 10 9 10 12 10
Wind_Direction
344 339 332 329 327 320 310 294 301 294 266 270 266 265 260 256 215 207 223 212 215 191 200 206 212 211 121 153 157 61 174 214 197 191 205 82 22 342 314 324 327 341 124 129 146
360 355 352 349 343 337 340 326 331 317 314 292 279 257 257 209 201 244 224 222 224 222 224 181 173 152 177 156 140 144 208 222 203 189 1 341 64 337 357 327 337 46 62 115 143
5 12 18 18 17 18 16 358 344 344 314 311 302 263 204 159 96 255 238 233 233 229 215 198 183 181 189 154 172 164 210 158 190 168 14 331 3 356 7 331 71 336 153 118 138
5 8 7 9 11 9 15 9 358 350 351 328 318 156 165 173 195 97 134 244 230 217 208 164 147 197 173 189 184 171 216 170 151 135 253 313 348 330 318 252 307 298 279 143 159
1 4 5 10 11 17 23 28 20 32 27 19 29 160 141 219 260 310 323 276 221 205 194 156 166 188 192 172 135 199 173 167 124 137 90 59 297 324 292 292 304 253 210 203 161
355 2 6 9 12 9 8 12 19 45 41 46 90 136 162 223 270 317 331 264 201 194 200 167 189 184 155 167 172 181 162 147 154 153 160 219 280 36 282 279 322 295 205 207 179
354 351 359 0 7 10 2 4 8 23 46 57 110 133 116 249 330 334 341 230 180 188 195 190 184 163 135 128 175 158 122 103 161 172 201 188 188 220 270 280 302 313 257 222 195
338 349 350 348 354 9 11 344 327 340 14 34 201 323 265 241 310 323 3 117 170 190 217 197 192 147 118 104 59 119 113 162 190 164 183 161 225 210 255 275 277 276 275 238 216
338 337 344 340 338 340 353 344 310 314 339 88 139 53 304 357 102 310 356 83 141 157 192 173 139 147 48 121 81 156 185 169 160 186 153 186 219 200 208 244 258 256 263 261 220
336 336 334 337 332 337 327 328 14 323 340 271 279 337 345 318 317 308 69 58 183 153 173 186 108 129 134 166 183 185 184 181 165 183 168 195 198 153 284 288 263 262 243 254 262
334 336 331 332 321 332 338 172 25 329 356 247 7 316 322 332 56 64 52 36 356 182 17 168 151 188 174 75 56 117 92 159 145 184 168 195 209 158 194 262 284 264 237 230 245
332 333 330 324 310 319 302 107 157 197 334 246 263 274 273 343 81 8 30 53 7 86 99 78 189 157 149 183 115 132 111 151 127 130 179 190 222 219 212 217 224 233 249 232 209
332 330 328 318 308 282 171 152 82 179 337 332 261 34 321 348 74 104 56 47 354 115 130 46 188 149 142 163 100 50 154 165 158 97 72 122 258 231 235 233 244 237 229 230 207
330 328 324 313 279 177 250 160 138 49 54 124 147 51 351 324 57 50 72 162 205 136 114 172 154 129 140 174 114 71 159 133 112 120 199 161 263 246 221 229 231 240 218 224 196
327 325 318 237 223 174 154 159 78 83 143 130 109 40 325 30 148 30 124 243 185 113 123 169 124 146 147 178 122 173 140 141 101 100 126 249 143 252 198 232 236 236 229 214 196
324 321 313 200 212 177 153 143 86 50 328 145 68 121 122 85 31 120 157 177 342 82 64 77 324 94 153 118 154 140 84 52 54 85 300 188 164 254 209 215 241 242 222 194 185
325 315 210 173 195 163 158 119 23 87 358 154 133 142 114 143 131 165 172 167 137 131 163 46 48 50 53 111 79 103 87 68 30 336 227 339 173 247 253 241 223 243 229 191 174
335 50 172 159 147 159 161 64 69 256 247 146 119 119 136 167 95 139 165 167 71 104 133 171 156 156 339 130 161 164 179 151 179 196 207 48 230 248 252 271 236 240 201 165 160
342 118 143 181 158 173 84 53 200 203 230 67 143 162 150 162 147 168 182 178 152 160 145 123 63 14 24 120 104 170 173 175 106 16 51 222 286 292 282 280 246 184 153 167 164
173 138 69 163 162 133 80 253 228 218 247 165 30 153 125 128 144 175 175 186 145 137 128 179 108 352 345 209 57 126 163 82 6 130 237 262 276 244 283 254 236 204 176 173 159
187 78 126 145 151 93 168 228 264 235 228 324 17 59 119 157 122 162 175 238 163 169 166 141 80 121 72 202 166 139 160 68 127 157 182 239 254 217 252 262 224 196 179 172 172
54 81 165 162 201 66 255 208 294 336 181 309 331 55 82 117 139 175 177 224 167 152 160 173 95 141 185 39 346 142 213 176 145 234 228 150 266 235 263 274 195 182 173 171 171
78 133 163 233 76 331 298 319 332 7 3 17 31 32 22 91 97 115 123 322 156 156 163 179 131 120 173 132 302 225 194 225 128 81 198 183 257 293 357 50 189 163 165 176 158
93 87 344 220 204 177 2 328 334 358 328 358 348 38 52 55 31 129 100 90 188 281 88 103 139 162 187 208 139 205 210 204 191 185 210 234 273 307 319 243 208 189 177 174 165
30 78 177 298 9 3 1 345 279 19 355 21 34 19 56 94 67 103 109 111 105 142 112 161 198 164 234 230 168 207 210 211 213 223 207 259 221 227 223 216 215 193 160 155 169
90 62 338 234 250 254 10 8 28 13 21 350 44 18 42 94 63 185 131 164 171 96 111 35 166 110 306 250 217 245 230 216 223 232 244 254 272 220 264 205 174 189 171 186 194
39 38 107 336 334 48 40 16 24 344 61 55 339 69 52 23 305 291 246 215 165 146 131 102 125 84 268 334 318 291 230 211 222 220 222 222 243 147 229 211 205 193 183 193 193